Weather History for Sauk Centre, MN

Change the Weather History Date:

Tuesday, July 16, 2013

  Actual Average (KGHW) Record (KGHW)
Temperature  
Mean Temperature 78 °F -  
Max Temperature 87 °F 83 °F 99 °F (1988)
Min Temperature 69 °F 59 °F 35 °F (2003)
Cooling Degree Days 13    
Growing Degree Days 28 (Base 50)    
Moisture  
Dew Point 68 °F    
Average Humidity 72    
Maximum Humidity 95    
Minimum Humidity 47    
Precipitation  
Precipitation 0.00 in - - ()
Sea Level Pressure  
Sea Level Pressure 30.18 in    
Wind  
Wind Speed 8 mph (SSW)    
Max Wind Speed 17 mph    
Max Gust Speed 20 mph    
Visibility 10 miles    
Events      
Averages and records for this station are not official NWS values.
T = Trace of Precipitation, MM = Missing Value Source: NWS Daily Summary

Daily Weather History Graph

Daily Weather History Graph

Search for Another Location

Airport:

Trip Planner

Search our weather history database for the weather conditions in past years. The results will help you decide how hot, cold, wet, or windy it might be!

Date:

Astronomy

Jul. 16, 2013 Rise Set
Actual Time 5:46 AM CDT 9:05 PM CDT
Civil Twilight 5:09 AM CDT 9:41 PM CDT
Nautical Twilight 4:21 AM CDT 10:28 PM CDT
Astronomical Twilight 3:21 AM CDT 11:28 PM CDT
Moon 2:40 PM CDT (7/16) 12:25 AM CDT (7/16)
Length of Visible Light 16h 31m
Length of Day
15h 19m
First Quarter, 56% of the Moon is Illuminated
Jul 16
First Quarter
Jul 22
Full
Jul 29
Last Quarter
Aug 6
New
Aug 14
First Quarter

Hourly Weather History & Observations

Time (CDT) Temp. Heat Index Dew Point Humidity Pressure Visibility Wind Dir Wind Speed Gust Speed Precip Events Conditions
12:10 AM 70.3 °F - 66.7 °F 88% 30.17 in 10.0 mi SE 6.9 mph - N/A   Clear
12:30 AM 69.8 °F - 66.7 °F 90% 30.17 in 10.0 mi SE 6.9 mph - N/A   Clear
12:49 AM 70.0 °F - 66.9 °F 90% 30.16 in 7.0 mi SE 5.8 mph - N/A   Scattered Clouds
1:10 AM 70.7 °F - 66.9 °F 88% 30.16 in 10.0 mi SE 6.9 mph - N/A   Scattered Clouds
1:30 AM 70.9 °F - 66.9 °F 87% 30.16 in 10.0 mi SE 6.9 mph - N/A   Scattered Clouds
1:50 AM 70.7 °F - 67.1 °F 88% 30.16 in 10.0 mi SE 4.6 mph - N/A   Scattered Clouds
2:10 AM 69.4 °F - 66.9 °F 92% 30.16 in 7.0 mi SE 3.5 mph - N/A   Scattered Clouds
2:30 AM 69.3 °F - 66.7 °F 92% 30.15 in 7.0 mi SE 3.5 mph - N/A   Scattered Clouds
2:50 AM 69.1 °F - 66.9 °F 93% 30.15 in 7.0 mi SSE 4.6 mph - N/A   Mostly Cloudy
3:10 AM 69.8 °F - 67.5 °F 92% 30.15 in 7.0 mi SSE 8.1 mph - N/A   Scattered Clouds
3:30 AM 70.3 °F - 67.6 °F 91% 30.15 in 7.0 mi SSE 8.1 mph - N/A   Clear
3:50 AM 70.3 °F - 68.0 °F 92% 30.14 in 7.0 mi SSE 9.2 mph - N/A   Clear
4:10 AM 70.3 °F - 68.0 °F 92% 30.14 in 7.0 mi SSE 9.2 mph - N/A   Clear
4:30 AM 70.3 °F - 68.0 °F 92% 30.14 in 10.0 mi SSE 6.9 mph - N/A   Scattered Clouds
4:50 AM 70.9 °F - 68.0 °F 91% 30.14 in 10.0 mi South 9.2 mph - N/A   Scattered Clouds
5:10 AM 71.1 °F - 68.0 °F 90% 30.15 in 10.0 mi South 9.2 mph - N/A   Clear
5:29 AM 70.3 °F - 68.0 °F 92% 30.15 in 10.0 mi South 6.9 mph - N/A   Clear
5:50 AM 69.8 °F - 67.6 °F 93% 30.16 in 7.0 mi South 5.8 mph - N/A   Clear
6:10 AM 69.1 °F - 67.5 °F 95% 30.16 in 7.0 mi South 5.8 mph - N/A   Clear
6:29 AM 69.3 °F - 67.6 °F 95% 30.17 in 7.0 mi South 6.9 mph - N/A   Clear
6:50 AM 70.5 °F - 68.2 °F 92% 30.17 in 7.0 mi South 6.9 mph - N/A   Clear
7:10 AM 72.1 °F - 68.9 °F 89% 30.17 in 10.0 mi South 8.1 mph - N/A   Clear
7:30 AM 73.4 °F - 69.1 °F 86% 30.18 in 10.0 mi South 9.2 mph - N/A   Clear
7:50 AM 73.9 °F - 69.3 °F 85% 30.18 in 10.0 mi South 10.4 mph - N/A   Clear
8:10 AM 75.4 °F - 69.4 °F 82% 30.18 in 10.0 mi South 12.7 mph 18.4 mph N/A   Clear
8:30 AM 76.3 °F - 69.6 °F 80% 30.19 in 10.0 mi SSW 10.4 mph - N/A   Clear
8:50 AM 77.5 °F - 69.1 °F 75% 30.19 in 10.0 mi SSW 11.5 mph - N/A   Clear
9:10 AM 78.8 °F - 69.1 °F 72% 30.19 in 10.0 mi SSW 11.5 mph 16.1 mph N/A   Clear
9:30 AM 79.7 °F - 69.1 °F 70% 30.19 in 10.0 mi SW 10.4 mph 16.1 mph N/A   Clear
9:50 AM 80.8 °F 83.9 °F 69.3 °F 68% 30.19 in 10.0 mi SSW 10.4 mph - N/A   Clear
10:10 AM 81.5 °F 84.9 °F 69.6 °F 67% 30.19 in 10.0 mi SW 11.5 mph - N/A   Clear
10:30 AM 82.2 °F 85.5 °F 69.1 °F 64% 30.19 in 10.0 mi SSW 11.5 mph - N/A   Clear
10:49 AM 82.4 °F 85.8 °F 68.9 °F 64% 30.19 in 10.0 mi SW 10.4 mph - N/A   Clear
11:10 AM 83.1 °F 86.3 °F 68.2 °F 61% 30.19 in 10.0 mi SSW 11.5 mph - N/A   Clear
11:30 AM 83.8 °F 87.5 °F 68.9 °F 61% 30.19 in 10.0 mi SSW 8.1 mph - N/A   Clear
11:49 AM 84.4 °F 87.9 °F 68.7 °F 59% 30.20 in 10.0 mi SSW 12.7 mph 16.1 mph N/A   Clear
12:10 PM 84.9 °F 88.5 °F 68.5 °F 58% 30.19 in 10.0 mi SSW 13.8 mph - N/A   Clear
12:30 PM 85.3 °F 88.8 °F 68.5 °F 57% 30.19 in 10.0 mi SSW 12.7 mph - N/A   Clear
12:50 PM 85.8 °F 89.7 °F 68.9 °F 57% 30.19 in 10.0 mi SSW 12.7 mph - N/A   Clear
1:10 PM 86.0 °F 90.4 °F 69.4 °F 58% 30.19 in 10.0 mi SSW 13.8 mph 19.6 mph N/A   Clear
1:30 PM 86.9 °F 91.0 °F 68.9 °F 55% 30.19 in 10.0 mi SW 15.0 mph 18.4 mph N/A   Clear
1:49 PM 86.9 °F 91.3 °F 69.3 °F 56% 30.19 in 10.0 mi SSW 17.3 mph - N/A   Scattered Clouds
2:10 PM 86.9 °F 91.3 °F 69.6 °F 56% 30.19 in 10.0 mi SSW 11.5 mph 17.3 mph N/A   Clear
2:30 PM 87.1 °F 89.9 °F 67.1 °F 51% 30.19 in 10.0 mi SSW 12.7 mph 19.6 mph N/A   Clear
2:50 PM 87.3 °F 90.2 °F 67.1 °F 51% 30.19 in 10.0 mi SW 16.1 mph 19.6 mph N/A   Clear
3:10 PM 86.9 °F 89.9 °F 67.3 °F 52% 30.19 in 10.0 mi SSW 13.8 mph - N/A   Clear
3:30 PM 87.3 °F 90.5 °F 67.8 °F 52% 30.19 in 10.0 mi SW 12.7 mph 18.4 mph N/A   Clear
3:50 PM 87.4 °F 90.1 °F 66.7 °F 50% 30.19 in 10.0 mi SW 11.5 mph - N/A   Clear
4:09 PM 87.4 °F 89.5 °F 65.7 °F 48% 30.19 in 10.0 mi WSW 16.1 mph 19.6 mph N/A   Clear
4:30 PM 87.8 °F 89.7 °F 65.5 °F 47% 30.18 in 10.0 mi SSW 16.1 mph - N/A   Clear
4:50 PM 87.1 °F 88.9 °F 65.3 °F 48% 30.18 in 10.0 mi SSW 15.0 mph 19.6 mph N/A   Clear
5:09 PM 87.1 °F 89.5 °F 66.6 °F 50% 30.18 in 10.0 mi SW 10.4 mph - N/A   Clear
5:30 PM 86.9 °F 89.3 °F 66.2 °F 50% 30.18 in 10.0 mi SSW 10.4 mph 16.1 mph N/A   Clear
5:50 PM 86.9 °F 88.9 °F 65.7 °F 49% 30.18 in 10.0 mi SSW 10.4 mph 19.6 mph N/A   Clear
6:09 PM 86.4 °F 88.7 °F 66.2 °F 51% 30.18 in 10.0 mi SSW 12.7 mph 18.4 mph N/A   Clear
6:30 PM 86.4 °F 88.7 °F 66.4 °F 51% 30.18 in 10.0 mi SSW 13.8 mph - N/A   Clear
6:50 PM 85.5 °F 87.9 °F 66.4 °F 53% 30.18 in 10.0 mi SW 8.1 mph - N/A   Clear
7:10 PM 84.6 °F 86.8 °F 66.2 °F 54% 30.18 in 10.0 mi SW 8.1 mph - N/A   Clear
7:30 PM 83.8 °F 86.7 °F 67.8 °F 58% 30.18 in 10.0 mi SW 6.9 mph - N/A   Clear
7:50 PM 82.8 °F 86.0 °F 68.4 °F 62% 30.17 in 10.0 mi SW 5.8 mph - N/A   Clear
8:10 PM 81.9 °F 84.2 °F 66.6 °F 60% 30.17 in 10.0 mi SW 5.8 mph - N/A   Clear
8:30 PM 79.9 °F - 66.7 °F 64% 30.18 in 10.0 mi WSW 3.5 mph - N/A   Clear
8:50 PM 78.8 °F - 66.6 °F 66% 30.18 in 10.0 mi West 3.5 mph - N/A   Clear
9:10 PM 77.9 °F - 67.1 °F 69% 30.19 in 10.0 mi Calm Calm - N/A   Clear
9:30 PM 77.2 °F - 67.1 °F 71% 30.21 in 10.0 mi Calm Calm - N/A   Clear
9:49 PM 75.9 °F - 67.3 °F 74% 30.21 in 10.0 mi Calm Calm - N/A   Clear
10:10 PM 73.2 °F - 67.8 °F 83% 30.22 in 10.0 mi SSE 3.5 mph - N/A   Clear
10:30 PM 71.8 °F - 68.2 °F 88% 30.21 in 10.0 mi South 4.6 mph - N/A   Clear
10:49 PM 71.6 °F - 68.0 °F 88% 30.21 in 10.0 mi South 3.5 mph - N/A   Clear
11:10 PM 71.6 °F - 67.5 °F 87% 30.21 in 10.0 mi South 5.8 mph - N/A   Clear
11:30 PM 71.8 °F - 67.1 °F 85% 30.21 in 10.0 mi South 5.8 mph - N/A   Clear
11:49 PM 72.0 °F - 66.9 °F 84% 30.22 in 10.0 mi SSW 6.9 mph - N/A   Clear